SAS173 ENZV-ENBR

Flight info

Callsign SAS173
Flight time N/A
Altitude 12000
Route ALUVA
Aircraft A320/M-SDE3FGHIRWY/LB1

Departure

Time 2026-04-29 10:34
Airport Stavanger Airport, Sola (ENZV)

Arrival

Time N/A
Airport Bergen Airport, Flesland (ENBR)
Time Latitude Longitude Altitude Speed Heading
2026-04-29 10:25 58.88129 5.63021 31 ft 0 kts 315°
2026-04-29 10:28 58.88129 5.63022 31 ft 0 kts 315°
2026-04-29 10:28 58.88118 5.63044 30 ft 3 kts 315°
2026-04-29 10:29 58.88105 5.63066 28 ft 2 kts 307°
2026-04-29 10:29 58.88100 5.63094 28 ft 2 kts 240°
2026-04-29 10:29 58.88108 5.63111 30 ft 0 kts 195°
2026-04-29 10:30 58.88099 5.63111 31 ft 3 kts 181°
2026-04-29 10:30 58.88073 5.63131 27 ft 5 kts 148°
2026-04-29 10:31 58.88034 5.63221 29 ft 11 kts 127°
2026-04-29 10:31 58.87968 5.63329 30 ft 14 kts 167°
2026-04-29 10:31 58.87860 5.63303 31 ft 17 kts 189°
2026-04-29 10:31 58.87726 5.63292 31 ft 21 kts 179°
2026-04-29 10:32 58.87564 5.63295 31 ft 25 kts 180°
2026-04-29 10:32 58.87376 5.63299 31 ft 29 kts 179°
2026-04-29 10:32 58.87166 5.63301 32 ft 28 kts 179°
2026-04-29 10:32 58.86989 5.63397 32 ft 27 kts 137°
2026-04-29 10:33 58.86949 5.63668 37 ft 15 kts 81°
2026-04-29 10:33 58.87007 5.63806 36 ft 10 kts
2026-04-29 10:33 58.87043 5.63795 35 ft 7 kts 357°
2026-04-29 10:33 58.87345 5.63786 34 ft 79 kts 359°
2026-04-29 10:34 58.88095 5.63769 32 ft 134 kts 359°
2026-04-29 10:34 58.89160 5.63732 211 ft 161 kts 353°
2026-04-29 10:34 58.90266 5.63643 919 ft 158 kts 353°
2026-04-29 10:34 58.91379 5.63491 1561 ft 162 kts 354°
2026-04-29 10:35 58.92456 5.62824 2046 ft 171 kts 321°
2026-04-29 10:35 58.92984 5.60647 2170 ft 200 kts 268°
2026-04-29 10:35 58.92349 5.58259 2244 ft 212 kts 216°
2026-04-29 10:35 58.90937 5.57478 2212 ft 218 kts 179°
2026-04-29 10:36 58.89380 5.57655 1845 ft 227 kts 175°
2026-04-29 10:36 58.87804 5.57993 1504 ft 228 kts 172°
2026-04-29 10:36 58.86278 5.58430 1375 ft 213 kts 172°
2026-04-29 10:36 58.84868 5.58695 1285 ft 194 kts 178°
2026-04-29 10:37 58.83596 5.58724 1202 ft 170 kts 181°
2026-04-29 10:37 58.82483 5.58768 1252 ft 150 kts 167°
2026-04-29 10:37 58.81646 5.59790 1231 ft 144 kts 118°
2026-04-29 10:37 58.81398 5.61608 1399 ft 141 kts 84°
2026-04-29 10:38 58.81705 5.63319 1620 ft 134 kts 46°
2026-04-29 10:38 58.82549 5.63997 1439 ft 140 kts 359°
2026-04-29 10:38 58.83544 5.63875 1004 ft 143 kts 357°
2026-04-29 10:38 58.84541 5.63857 714 ft 144 kts 359°
2026-04-29 10:39 58.85529 5.63860 386 ft 140 kts 354°
2026-04-29 10:39 58.86493 5.63822 190 ft 139 kts 355°
2026-04-29 10:39 58.87451 5.63788 38 ft 129 kts 354°
2026-04-29 10:39 58.88203 5.63748 31 ft 84 kts 358°
2026-04-29 10:40 58.88406 5.63740 30 ft 30 kts